This demonstration page uses our WeatherBlox Daily Observations layout. Learn more.

Left ArrowRight Arrow

Hourly Observations for July 28, 2017

Temp ( °F °C ) Dew Point ( °F °C ) Humidity (%) Winds ( mph kmh ) Pressure ( in mb ) Visibility ( mi km ) Precip ( " mm )
12:53 am 00:53 Clear 82 27.8 50 10 33 33 Calm 29.82 1010 10 16 0.00 0.00
1:53 am 01:53 Clear 78 25.6 52 11.1 40 40 NNW 5 7 29.82 1010 10 16 0.00 0.00
2:53 am 02:53 Clear 78 25.6 53 11.7 42 42 N 7 11 29.82 1010 10 16 0.00 0.00
3:53 am 03:53 Clear 75 23.9 55 12.8 50 50 NW 3 6 29.83 1010 10 16 0.00 0.00
4:53 am 04:53 Clear 74 23.3 57 13.9 56 56 NNW 3 6 29.83 1010 10 16 0.00 0.00
5:53 am 05:53 Clear 74 23.3 57 13.9 56 56 Calm 29.83 1010 10 16 0.00 0.00
6:53 am 06:53 Sunny 75 23.9 57 13.9 54 54 NNW 3 6 29.84 1011 10 16 0.00 0.00
7:53 am 07:53 Sunny 80 26.7 57 13.9 45 45 NNW 6 9 29.85 1011 10 16 0.00 0.00
8:53 am 08:53 Sunny 85 29.4 56 13.3 37 37 WNW 5 7 29.85 1011 10 16 0.00 0.00
9:53 am 09:53 Sunny 90 32.2 55 12.8 31 31 VRB 3 6 29.84 1010 10 16 0.00 0.00
10:53 am 10:53 Sunny 94 34.4 53 11.7 25 25 Calm 29.83 1010 10 16 0.00 0.00
11:53 am 11:53 Sunny 97 36.1 52 11.1 22 22 VRB 5 7 29.82 1010 10 16 0.00 0.00
12:53 pm 12:53 Sunny 98 36.7 48 8.9 18 18 VRB 6 9 29.80 1009 10 16 0.00 0.00
1:53 pm 13:53 Sunny 101 38.3 48 8.9 17 17 SE 6 9 29.79 1009 10 16 0.00 0.00
2:53 pm 14:53 Sunny 103 39.4 49 9.4 16 16 SE 8 13 29.78 1008 10 16 0.00 0.00
3:53 pm 15:53 Sunny 104 40 41 5 12 12 SSW 13 20 29.77 1008 10 16 0.00 0.00
4:53 pm 16:53 Sunny 103 39.4 45 7.2 14 14 SSE 14 22 29.75 1008 10 16 0.00 0.00
5:53 pm 17:53 Sunny 103 39.4 43 6.1 13 13 S 10 17 29.74 1007 10 16 0.00 0.00
6:53 pm 18:53 Sunny 102 38.9 34 1.1 9 9 S 9 15 29.74 1007 10 16 0.00 0.00
7:53 pm 19:53 Sunny 97 36.1 43 6.1 16 16 S 8 13 29.74 1007 10 16 0.00 0.00
8:53 pm 20:53 Clear 89 31.7 52 11.1 28 28 SSE 3 6 29.76 1008 10 16 0.00 0.00
9:53 pm 21:53 Clear 89 31.7 50 10 26 26 Calm 29.78 1008 10 16 0.00 0.00
10:53 pm 22:53 Clear 85 29.4 51 10.6 31 31 Calm 29.80 1009 10 16 0.00 0.00
11:53 pm 23:53 Clear 81 27.2 51 10.6 35 35 NNE 6 9 29.82 1010 10 16 0.00 0.00

Powered by AerisWeather